[[{"header":{"parameterUnit":"m.s-1","parameterCategory":2,"la1":30.2991,"la2":30.254,"lo1":-89.0895,"lo2":-89.0444,"dy":0.0017,"dx":0.0017,"nx":28,"ny":28,"refTime":"2025-06-06T21:00:00:Z","depth":"0","parameterNumber":2,"parameterNumberName":"U-component_of_CURRENTS"},"data":[0,0,0,0,0,0,0,0,0,0,0,0,0,0,0,0,0,0,0,0,0,0,0,0,0,0,0,0,0,0,0,0,0,0,0,0,0,0,0,0,0,0,0,0,0,0,0,0,0,0,0,0,0,0,0,0,0,0,0.2236,0.2237,0,0.2312,0.2312,0.2312,0.236,0.2361,0.2362,0.2363,0.2332,0.2331,0.2329,0,0,0,0,0,0,0,0,0,0,0,0,0,0.2073,0.2075,0.2236,0.2237,0.2239,0.2312,0.2312,0.2312,0.236,0.2361,0.2362,0.2363,0.2333,0.2331,0.2329,0,0,0,0,0,0,0,0,0,0,0,0,0,0.2138,0.2076,0.2235,0.2278,0.2283,0.2312,0.2312,0.2312,0.2359,0.2361,0.2362,0.2364,0.2334,0.2331,0.2328,0.2281,0,0,0.232,0.2319,0,0,0,0,0,0,0,0,0.2134,0.2143,0.227,0.2275,0.2281,0.2336,0.2244,0.23,0.2359,0.2321,0.2363,0.2365,0.2328,0.2326,0.2326,0.2279,0.2278,0.232,0.2318,0.2317,0.2316,0,0,0,0,0,0,0,0.213,0.2139,0.2257,0.2272,0.2279,0.2274,0.2284,0.2254,0.2306,0.2325,0.233,0.2352,0.2329,0.2328,0.2325,0.2277,0.232,0.2318,0.2316,0.2315,0.2176,0.2174,0,0,0,0,0,0,0.2139,0.2136,0.2255,0.226,0.222,0.2276,0.2288,0.2309,0.2309,0.2314,0.2351,0.2354,0.2332,0.2328,0.2324,0.2283,0.2317,0.2315,0.2313,0.2178,0.2176,0.2174,0,0,0,0,0,0,0.2135,0.2149,0.2252,0.2206,0.222,0.2279,0.2302,0.231,0.2318,0.2332,0.2333,0.2353,0.2333,0.2328,0.2302,0.2281,0.2313,0.2311,0.2181,0.2178,0.2175,0.2189,0,0,0,0,0,0,0.213,0.2147,0.2153,0.2207,0.2224,0.2262,0.2302,0.2311,0.2333,0.2338,0.2333,0.2332,0.2334,0.2306,0.23,0.2278,0.2309,0.2183,0.2179,0.2176,0.2191,0.2187,0.2183,0,0,0,0,0,0.2124,0.2131,0.2153,0.2167,0.2235,0.2263,0.2268,0.2309,0.2332,0.2323,0.2328,0.2332,0.2276,0.2303,0.2295,0.2273,0.2185,0.218,0.2176,0.2193,0.2188,0.2183,0,0,0,0,0,0,0.2057,0.2139,0.2164,0.2194,0.2224,0.2274,0.2275,0.2304,0.2301,0.2307,0.2314,0.2312,0.2284,0.2262,0.2291,0.2215,0.2227,0.222,0.2242,0.2237,0.2233,0.224,0.2307,0,0,0,0,0,0.2048,0.2086,0.2141,0.2167,0.2175,0.222,0.2236,0.2267,0.2284,0.2287,0.2283,0.2268,0.2254,0.2236,0.2217,0.2171,0.2156,0.2144,0.214,0.2137,0.2133,0.2105,0.21,0.2158,0.2158,0.2158,0,0,0.2037,0.2085,0.2108,0.2157,0.218,0.2173,0.223,0.2254,0.2247,0.2278,0.2247,0.2258,0.224,0.2206,0.2187,0.2187,0.2107,0.2131,0.213,0.2127,0.21,0.2095,0.209,0.2155,0.2156,0.2156,0,0,0.2024,0.2061,0.2078,0.2091,0.2135,0.2149,0.2153,0.219,0.2199,0.2184,0.2208,0.2214,0.2165,0.2168,0.2159,0.211,0.2097,0.2086,0.2064,0.2037,0.2033,0.2029,0.1992,0.1985,0.2073,0.2073,0.2073,0,0.1995,0.2028,0.2081,0.2081,0.2079,0.2129,0.2109,0.212,0.2145,0.2149,0.2167,0.2155,0.215,0.2133,0.2121,0.2106,0.2079,0.2096,0.2036,0.2032,0.2028,0.1991,0.1983,0.2073,0.2073,0.2073,0.2073,0,0.1989,0.1999,0.2,0.2014,0.201,0.2005,0.2024,0.2018,0.2036,0.2065,0.2069,0.2089,0.2087,0.2081,0.2088,0.2054,0.204,0.2049,0.2061,0.2024,0.1986,0.1977,0.2073,0.2073,0.2073,0.2073,0,0,0.1914,0.1986,0.1971,0.1955,0.197,0.1952,0.1937,0.1934,0.1928,0.1966,0.1965,0.1979,0.2031,0.2023,0.2046,0.2026,0.1984,0.2018,0.2017,0.2004,0.1906,0.1829,0.1813,0.1982,0.1981,0.198,0.1888,0,0.1867,0.187,0.1907,0.1845,0.1822,0.1845,0.1818,0.183,0.1857,0.1863,0.193,0.1935,0.1995,0.2001,0.2003,0.2005,0.1962,0.2007,0.1924,0.1921,0.1877,0.1801,0.1817,0.173,0.188,0.1879,0.1878,0,0.1788,0.1812,0.1781,0.1758,0.1743,0.1715,0.1672,0.1662,0.1711,0.1742,0.1807,0.1865,0.1896,0.1926,0.1927,0.1952,0.1913,0.1906,0.1902,0.1821,0.1828,0.179,0.1709,0.1727,0.1865,0.1866,0.1867,0,0.1664,0.1668,0.1644,0.1637,0.1647,0.1621,0.1606,0.1632,0.1624,0.1674,0.1693,0.1769,0.1789,0.18,0.1827,0.1861,0.1792,0.1837,0.1724,0.1719,0.1709,0.1704,0.1657,0.1769,0.1769,0.1769,0.177,0,0.1555,0.1509,0.1591,0.1569,0.1512,0.1532,0.1474,0.1494,0.1527,0.1521,0.1631,0.1644,0.175,0.1756,0.1779,0.1729,0.1754,0.1696,0.168,0.171,0.1706,0.1703,0.1695,0.1766,0.1767,0.1767,0.1768,0,0.14,0.1464,0.1428,0.1463,0.146,0.1411,0.1397,0.1369,0.1415,0.1414,0.1427,0.1528,0.1545,0.1619,0.1615,0.1634,0.1562,0.1555,0.1578,0.1565,0.1499,0.1489,0.1266,0.1233,0.1439,0.1436,0.1434,0,0.1334,0.131,0.1347,0.1337,0.1352,0.1305,0.128,0.1309,0.1304,0.1339,0.1339,0.1363,0.1391,0.1385,0.1427,0.1427,0.1411,0.1384,0.1448,0.1463,0.1443,0.1366,0.1352,0.1445,0.1443,0.1441,0.144,0,0.1191,0.1212,0.121,0.1224,0.1203,0.1166,0.115,0.1138,0.117,0.1173,0.1174,0.1191,0.1226,0.1264,0.1264,0.1277,0.1347,0.1346,0.137,0.1425,0.133,0.1304,0.1535,0.1426,0.1427,0.1428,0.1429,0.143,0.108,0.1061,0.1088,0.1077,0.1068,0.1048,0.0999,0.1001,0.0974,0.0985,0.1022,0.1033,0.1157,0.1195,0.1183,0.1228,0.1178,0.1259,0.124,0.1156,0.1128,0.1298,0.1165,0.1165,0.1165,0.1165,0.1165,0,0.0948,0.0946,0.0936,0.0941,0.0907,0.0942,0.0918,0.0874,0.083,0.0869,0.0854,0.0973,0.1033,0.1134,0.123,0.119,0.1152,0.116,0.1127,0.1118,0.1304,0.1315,0.1198,0.1198,0.1198,0.1198,0.1198,0.1198,0.0877,0.0827,0.0844,0.0788,0.0791,0.0731,0.0713,0.0678,0.0695,0.0712,0.0777,0.0856,0.107,0.1169,0.1214,0.1194,0.1131,0.102,0.0986,0.1235,0.1247,0.1258,0.1271,0.1147,0.1146,0.0823,0.0821,0.0819]},{"header":{"parameterUnit":"m.s-1","parameterCategory":2,"la1":30.2991,"la2":30.254,"lo1":-89.0895,"lo2":-89.0444,"dy":0.0017,"dx":0.0017,"nx":28,"ny":28,"refTime":"2025-06-06T21:00:00:Z","depth":"0","parameterNumber":3,"parameterNumberName":"V-component_of_CURRENTS"},"data":[0,0,0,0,0,0,0,0,0,0,0,0,0,0,0,0,0,0,0,0,0,0,0,0,0,0,0,0,0,0,0,0,0,0,0,0,0,0,0,0,0,0,0,0,0,0,0,0,0,0,0,0,0,0,0,0,0,0,0.03,0.03,0,0.0349,0.035,0.0351,0.0343,0.0342,0.0341,0.034,0.0394,0.0396,0.0398,0,0,0,0,0,0,0,0,0,0,0,0,0,0.0254,0.0255,0.03,0.0301,0.0301,0.0349,0.035,0.0351,0.0343,0.0342,0.0341,0.034,0.0393,0.0395,0.0398,0,0,0,0,0,0,0,0,0,0,0,0,0,0.0286,0.0255,0.03,0.0303,0.0304,0.0349,0.035,0.0351,0.0343,0.0342,0.034,0.0339,0.0392,0.0395,0.0398,0.0444,0,0,0.0409,0.041,0,0,0,0,0,0,0,0,0.0284,0.0287,0.0302,0.0303,0.0304,0.0339,0.0354,0.0382,0.0343,0.0328,0.034,0.0339,0.0377,0.0381,0.0393,0.0447,0.0449,0.0409,0.0411,0.0412,0.0413,0,0,0,0,0,0,0,0.0281,0.0285,0.0319,0.0303,0.0304,0.0321,0.0324,0.0359,0.0359,0.0329,0.0329,0.0335,0.0377,0.039,0.0394,0.045,0.0409,0.0412,0.0414,0.0415,0.0493,0.0493,0,0,0,0,0,0,0.0274,0.0283,0.0318,0.0321,0.0291,0.0323,0.0326,0.0329,0.0358,0.0362,0.0336,0.0334,0.0385,0.039,0.0396,0.0404,0.0412,0.0415,0.0417,0.0493,0.0493,0.0493,0,0,0,0,0,0,0.0273,0.0277,0.0316,0.0303,0.0309,0.0325,0.0328,0.033,0.034,0.0363,0.0366,0.0343,0.0384,0.0391,0.0418,0.0408,0.0417,0.042,0.0493,0.0493,0.0493,0.0451,0,0,0,0,0,0,0.0272,0.0276,0.0274,0.0303,0.031,0.0336,0.033,0.0332,0.0346,0.0345,0.0371,0.0375,0.0384,0.0413,0.0421,0.0412,0.0422,0.0493,0.0493,0.0493,0.0452,0.0449,0.0447,0,0,0,0,0,0.027,0.0286,0.0274,0.0278,0.0307,0.0336,0.0341,0.0348,0.0348,0.0353,0.0367,0.0374,0.0419,0.0416,0.0426,0.0417,0.0493,0.0493,0.0493,0.0453,0.045,0.0447,0,0,0,0,0,0,0.0276,0.0288,0.0275,0.0294,0.0304,0.0334,0.0346,0.0353,0.037,0.037,0.0386,0.0391,0.0406,0.0427,0.0423,0.044,0.0453,0.0456,0.042,0.0417,0.0415,0.0433,0.0425,0,0,0,0,0,0.0272,0.028,0.0291,0.0306,0.0309,0.0325,0.0338,0.0345,0.0366,0.0372,0.039,0.0407,0.0418,0.0428,0.0448,0.047,0.0487,0.0469,0.0466,0.0464,0.0486,0.0499,0.0499,0.0494,0.0494,0.0494,0,0,0.0281,0.0287,0.0293,0.0306,0.0314,0.0333,0.033,0.0353,0.0368,0.0378,0.0404,0.0406,0.0424,0.0434,0.0443,0.0448,0.0469,0.0464,0.0462,0.0486,0.0499,0.05,0.05,0.0494,0.0494,0.0494,0,0,0.0306,0.0303,0.0311,0.0319,0.0329,0.0345,0.0351,0.0375,0.0376,0.0403,0.0401,0.0402,0.0437,0.0435,0.044,0.0445,0.0457,0.0443,0.0446,0.0456,0.0457,0.0458,0.0454,0.0455,0.0439,0.0439,0.0439,0,0.0303,0.0321,0.0321,0.033,0.0342,0.0351,0.0369,0.038,0.0411,0.0411,0.0406,0.0435,0.0438,0.0446,0.0433,0.044,0.0445,0.0449,0.0453,0.0454,0.0456,0.0452,0.0453,0.0437,0.0437,0.0438,0.0438,0,0.0335,0.0342,0.0353,0.0361,0.0377,0.0398,0.0409,0.0414,0.0419,0.043,0.0436,0.044,0.0457,0.044,0.0438,0.0443,0.0442,0.0446,0.0457,0.0454,0.0449,0.0452,0.0434,0.0435,0.0436,0.0436,0,0,0.0342,0.0365,0.0366,0.0367,0.0393,0.041,0.0425,0.0439,0.0444,0.0455,0.0468,0.0462,0.0461,0.0469,0.0457,0.0456,0.0447,0.0453,0.0454,0.0444,0.046,0.0455,0.0457,0.0447,0.0448,0.0449,0.0443,0,0.0356,0.0375,0.0393,0.0421,0.043,0.0437,0.0449,0.046,0.0468,0.0483,0.0476,0.049,0.0474,0.047,0.047,0.0464,0.0456,0.0448,0.0472,0.0473,0.0465,0.0462,0.0475,0.0472,0.0445,0.0446,0.0446,0,0.038,0.0385,0.0407,0.0426,0.0431,0.0452,0.0464,0.0477,0.0489,0.0492,0.0507,0.0517,0.0524,0.0508,0.0511,0.0506,0.0486,0.0473,0.0473,0.0495,0.0474,0.0478,0.0478,0.0493,0.045,0.045,0.045,0,0.0379,0.0402,0.0417,0.0425,0.0445,0.0449,0.0463,0.0474,0.0478,0.0505,0.0517,0.054,0.0548,0.0548,0.053,0.052,0.053,0.0515,0.049,0.0488,0.0522,0.0523,0.0543,0.0515,0.0515,0.0515,0.0515,0,0.0393,0.0405,0.0412,0.0417,0.0427,0.0444,0.0456,0.0464,0.0484,0.05,0.0526,0.0542,0.0558,0.0567,0.0549,0.0536,0.0548,0.0502,0.0494,0.0504,0.0503,0.0537,0.0532,0.0515,0.0515,0.0515,0.0515,0,0.0398,0.0403,0.0414,0.0423,0.0427,0.0431,0.0452,0.0455,0.0476,0.0502,0.0514,0.0548,0.0557,0.0566,0.0561,0.0552,0.0556,0.0526,0.053,0.0524,0.0516,0.0508,0.052,0.0589,0.0505,0.0505,0.0505,0,0.0408,0.0407,0.0411,0.0412,0.0419,0.0425,0.0424,0.0444,0.046,0.0498,0.0515,0.0537,0.0554,0.0559,0.055,0.0538,0.0547,0.0536,0.0524,0.053,0.0515,0.0501,0.0559,0.0538,0.0538,0.0539,0.0539,0,0.0409,0.0403,0.0404,0.0406,0.0408,0.0413,0.0426,0.0438,0.0464,0.0483,0.0511,0.0528,0.0541,0.0548,0.0543,0.0534,0.0571,0.0538,0.0554,0.0558,0.0537,0.0596,0.0514,0.0541,0.054,0.054,0.054,0.054,0.0406,0.0399,0.0394,0.04,0.0403,0.0411,0.0412,0.0432,0.0448,0.0489,0.0499,0.054,0.0577,0.0573,0.0549,0.0559,0.0558,0.0563,0.0554,0.054,0.061,0.0526,0.0538,0.0538,0.0538,0.0538,0.0538,0,0.0394,0.0389,0.039,0.0391,0.0394,0.0402,0.0416,0.0413,0.0427,0.0496,0.0512,0.0621,0.0599,0.0615,0.0609,0.0593,0.0616,0.0594,0.0591,0.0657,0.0589,0.0596,0.0612,0.0612,0.0612,0.0612,0.0612,0.0612,0.0389,0.0377,0.0376,0.0379,0.0385,0.0379,0.0383,0.0386,0.0434,0.0537,0.0645,0.0743,0.0876,0.0661,0.0622,0.0621,0.0678,0.0614,0.0679,0.0622,0.0619,0.0616,0.0623,0.0644,0.0644,0.0782,0.0783,0.0783]}],[{"header":{"parameterUnit":"m.s-1","parameterCategory":2,"la1":30.2991,"la2":30.254,"lo1":-89.0895,"lo2":-89.0444,"dy":0.0017,"dx":0.0017,"nx":28,"ny":28,"refTime":"2025-06-06T21:00:00:Z","depth":"2","parameterNumber":2,"parameterNumberName":"U-component_of_CURRENTS"},"data":[0,0,0,0,0,0,0,0,0,0,0,0,0,0,0,0,0,0,0,0,0,0,0,0,0,0,0,0,0,0,0,0,0,0,0,0,0,0,0,0,0,0,0,0,0,0,0,0,0,0,0,0,0,0,0,0,0,0,0.1728,0.1729,0,0.1858,0.186,0.1862,0.2005,0.2006,0.2008,0.2009,0.1996,0.1994,0.1992,0,0,0,0,0,0,0,0,0,0,0,0,0,0.1591,0.1593,0.1728,0.1729,0.173,0.1857,0.186,0.1862,0.2005,0.2006,0.2008,0.201,0.1996,0.1994,0.1992,0,0,0,0,0,0,0,0,0,0,0,0,0,0.1685,0.1594,0.1728,0.1811,0.182,0.1857,0.186,0.1863,0.2004,0.2006,0.2009,0.2011,0.1997,0.1995,0.1992,0.1933,0,0,0.1984,0.1983,0,0,0,0,0,0,0,0,0.1679,0.1691,0.1798,0.1806,0.1815,0.1911,0.1806,0.1877,0.2004,0.1941,0.2009,0.2012,0.1948,0.195,0.1981,0.1932,0.1932,0.1984,0.1982,0.1981,0.1981,0,0,0,0,0,0,0,0.1673,0.1686,0.1786,0.1799,0.1809,0.1837,0.1854,0.1822,0.1933,0.1947,0.1956,0.1959,0.1953,0.1984,0.1981,0.1931,0.1984,0.1982,0.198,0.1979,0.1783,0.178,0,0,0,0,0,0,0.1641,0.1679,0.1782,0.179,0.1743,0.1837,0.1857,0.1884,0.1937,0.1947,0.1957,0.1965,0.1987,0.1984,0.1981,0.1974,0.1981,0.1979,0.1978,0.1787,0.1782,0.1778,0,0,0,0,0,0,0.1638,0.165,0.1777,0.173,0.1748,0.1837,0.1867,0.1885,0.194,0.1945,0.1954,0.1995,0.1988,0.1985,0.1944,0.1971,0.1978,0.1976,0.1791,0.1786,0.178,0.1919,0,0,0,0,0,0,0.1634,0.1649,0.1661,0.1729,0.1749,0.1804,0.1864,0.1886,0.1934,0.1947,0.1979,0.198,0.199,0.1948,0.1941,0.1968,0.1974,0.1796,0.1789,0.1782,0.1919,0.1918,0.1918,0,0,0,0,0,0.1629,0.1632,0.1662,0.1674,0.1763,0.1803,0.1817,0.1891,0.1933,0.1952,0.1955,0.198,0.1899,0.1943,0.1937,0.1964,0.1799,0.1791,0.1783,0.1919,0.1919,0.1918,0,0,0,0,0,0,0.1569,0.1648,0.1683,0.1708,0.1753,0.1825,0.1841,0.1892,0.1919,0.1932,0.1945,0.1943,0.1929,0.188,0.1928,0.1867,0.1847,0.1837,0.1952,0.1951,0.1951,0.194,0.1971,0,0,0,0,0,0.1558,0.1602,0.1658,0.1684,0.1696,0.1771,0.1798,0.1855,0.1882,0.1904,0.1922,0.1902,0.1882,0.1867,0.1843,0.1801,0.1762,0.1795,0.1796,0.1797,0.177,0.1738,0.1736,0.1751,0.1751,0.1752,0,0,0.1543,0.1591,0.1616,0.1675,0.1717,0.1732,0.1796,0.1842,0.1863,0.1884,0.1906,0.1917,0.1866,0.1851,0.1835,0.1821,0.1768,0.1786,0.179,0.1761,0.173,0.173,0.1729,0.1746,0.1747,0.1748,0,0,0.1542,0.1571,0.1612,0.1635,0.1694,0.1718,0.1729,0.1804,0.1845,0.1849,0.1879,0.1888,0.1844,0.1847,0.1827,0.178,0.1781,0.1767,0.1764,0.1736,0.1738,0.1738,0.1707,0.1704,0.1757,0.1757,0.1757,0,0.1533,0.158,0.1623,0.165,0.1647,0.1704,0.1712,0.1748,0.1808,0.181,0.1852,0.1845,0.1839,0.182,0.1821,0.1796,0.1768,0.1804,0.1748,0.1747,0.1745,0.1713,0.1708,0.1763,0.1762,0.1762,0.1761,0,0.1567,0.1586,0.1594,0.1644,0.1636,0.1655,0.1675,0.1686,0.1726,0.1772,0.1794,0.1824,0.182,0.1828,0.1819,0.1804,0.1788,0.1781,0.1783,0.1755,0.1719,0.1712,0.1771,0.1769,0.1767,0.1766,0,0,0.1545,0.1626,0.161,0.1605,0.1633,0.1611,0.1605,0.1605,0.1612,0.1686,0.1705,0.1729,0.1804,0.1779,0.1818,0.1795,0.1798,0.1785,0.1781,0.1813,0.1735,0.1612,0.1592,0.1805,0.1804,0.1803,0.1727,0,0.1553,0.1607,0.1624,0.158,0.157,0.1563,0.1547,0.1545,0.1581,0.161,0.1668,0.1705,0.1771,0.1809,0.1814,0.1813,0.1776,0.1817,0.1701,0.1696,0.1642,0.1578,0.1526,0.1443,0.1719,0.1718,0.1717,0,0.1521,0.1561,0.1577,0.153,0.152,0.1502,0.1432,0.1435,0.1472,0.1518,0.1593,0.1664,0.1706,0.1746,0.1753,0.1785,0.1747,0.173,0.1727,0.1549,0.1557,0.15,0.1418,0.1703,0.1704,0.1705,0.1706,0,0.1421,0.1451,0.1462,0.1456,0.1462,0.1427,0.1402,0.1409,0.1406,0.1471,0.1502,0.1599,0.1639,0.165,0.1667,0.1708,0.1623,0.1676,0.1515,0.1508,0.1398,0.1381,0.1595,0.1595,0.1595,0.1595,0.1595,0,0.1363,0.1328,0.1424,0.1416,0.1367,0.1363,0.1316,0.1325,0.1364,0.1362,0.1476,0.1508,0.1607,0.1603,0.1626,0.1546,0.1595,0.148,0.1463,0.1439,0.1427,0.1591,0.1592,0.1592,0.1593,0.1593,0.1594,0,0.1223,0.1316,0.1297,0.1335,0.1329,0.1276,0.125,0.123,0.1285,0.1291,0.1308,0.1408,0.1417,0.1472,0.1455,0.1449,0.1402,0.1329,0.129,0.1268,0.1325,0.1333,0.1183,0.1177,0.1173,0.1169,0.1166,0,0.1189,0.1181,0.1224,0.1217,0.1239,0.1186,0.1158,0.1185,0.1185,0.1222,0.1224,0.1237,0.1242,0.1193,0.1212,0.1188,0.1228,0.1033,0.108,0.1275,0.1275,0.129,0.1303,0.1012,0.1007,0.1004,0.1001,0,0.1071,0.1097,0.11,0.1124,0.1103,0.1059,0.1039,0.1035,0.1062,0.1071,0.107,0.1061,0.105,0.1018,0.0955,0.0935,0.106,0.0955,0.1154,0.1106,0.1101,0.1106,0.1128,0.0971,0.0974,0.0976,0.0978,0.0979,0.097,0.0955,0.0991,0.0983,0.0975,0.0954,0.0902,0.0897,0.087,0.0872,0.0909,0.0864,0.0871,0.0786,0.076,0.0759,0.0831,0.0785,0.0801,0.082,0.0795,0.078,0.0586,0.0587,0.0588,0.0588,0.0589,0,0.0844,0.0845,0.0841,0.085,0.0819,0.0853,0.0826,0.077,0.0721,0.0729,0.0703,0.0624,0.0586,0.0615,0.0603,0.057,0.0641,0.0508,0.0629,0.0657,0.0682,0.0657,0.0408,0.0408,0.0408,0.0407,0,0,0.0774,0.0729,0.0747,0.0696,0.0705,0.0642,0.0623,0.0567,0.0554,0.0493,0.0475,0.0507,0.0554,0.0475,0.0465,0.0444,0.0546,0.0412,0.0553,0.0721,0.0747,0.0827,0.0816,0,0,0,0,0]},{"header":{"parameterUnit":"m.s-1","parameterCategory":2,"la1":30.2991,"la2":30.254,"lo1":-89.0895,"lo2":-89.0444,"dy":0.0017,"dx":0.0017,"nx":28,"ny":28,"refTime":"2025-06-06T21:00:00:Z","depth":"2","parameterNumber":3,"parameterNumberName":"V-component_of_CURRENTS"},"data":[0,0,0,0,0,0,0,0,0,0,0,0,0,0,0,0,0,0,0,0,0,0,0,0,0,0,0,0,0,0,0,0,0,0,0,0,0,0,0,0,0,0,0,0,0,0,0,0,0,0,0,0,0,0,0,0,0,0,0.0075,0.0075,0,0.0125,0.0125,0.0126,0.0159,0.0159,0.0159,0.0159,0.0222,0.0224,0.0226,0,0,0,0,0,0,0,0,0,0,0,0,0,0.0057,0.0058,0.0075,0.0075,0.0076,0.0124,0.0125,0.0127,0.0159,0.0159,0.0159,0.0158,0.0222,0.0224,0.0226,0,0,0,0,0,0,0,0,0,0,0,0,0,0.0085,0.0058,0.0075,0.0095,0.0097,0.0124,0.0125,0.0127,0.0159,0.0159,0.0159,0.0158,0.0221,0.0224,0.0226,0.0247,0,0,0.0235,0.0236,0,0,0,0,0,0,0,0,0.0084,0.0086,0.0092,0.0093,0.0096,0.0132,0.0142,0.0166,0.0159,0.0139,0.0159,0.0158,0.0191,0.0196,0.0211,0.025,0.0253,0.0235,0.0237,0.0238,0.0239,0,0,0,0,0,0,0,0.0082,0.0085,0.0098,0.0092,0.0094,0.0118,0.0121,0.0148,0.0169,0.0141,0.0143,0.0142,0.0193,0.0209,0.0213,0.0254,0.0235,0.0237,0.0239,0.024,0.0295,0.0295,0,0,0,0,0,0,0.0065,0.0083,0.0097,0.01,0.0085,0.0118,0.0122,0.0124,0.0169,0.0174,0.0142,0.0143,0.0204,0.021,0.0215,0.0238,0.0238,0.024,0.0242,0.0295,0.0295,0.0294,0,0,0,0,0,0,0.0065,0.0066,0.0095,0.0089,0.0094,0.0117,0.012,0.0125,0.0151,0.0168,0.0175,0.0163,0.0204,0.0212,0.0237,0.0241,0.0242,0.0244,0.0295,0.0295,0.0295,0.0287,0,0,0,0,0,0,0.0064,0.0066,0.0061,0.0088,0.0093,0.0113,0.0119,0.0126,0.0148,0.015,0.0188,0.0193,0.0205,0.0232,0.0239,0.0245,0.0246,0.0295,0.0295,0.0295,0.0288,0.0287,0.0286,0,0,0,0,0,0.0064,0.0077,0.0061,0.0062,0.0086,0.0113,0.0119,0.0138,0.0149,0.0161,0.018,0.0193,0.0235,0.0235,0.0243,0.0249,0.0296,0.0295,0.0295,0.0288,0.0287,0.0286,0,0,0,0,0,0,0.0073,0.0081,0.0065,0.0079,0.0086,0.0117,0.0134,0.0145,0.0173,0.018,0.0199,0.0205,0.0225,0.0239,0.0238,0.0261,0.0265,0.0266,0.0257,0.0256,0.0255,0.0269,0.0249,0,0,0,0,0,0.0066,0.0071,0.0078,0.0083,0.0093,0.0112,0.0125,0.0138,0.0164,0.0177,0.0203,0.0222,0.0229,0.0244,0.0258,0.0281,0.0291,0.0287,0.0286,0.0285,0.0301,0.0313,0.0316,0.0293,0.0293,0.0293,0,0,0.0062,0.0071,0.0068,0.0084,0.0097,0.0124,0.0122,0.0151,0.0172,0.018,0.0225,0.0225,0.0234,0.025,0.026,0.0264,0.0293,0.0284,0.0284,0.03,0.0313,0.0316,0.0318,0.0293,0.0293,0.0293,0,0,0.0082,0.0074,0.0091,0.01,0.0118,0.0138,0.0148,0.0183,0.0195,0.0225,0.0226,0.0228,0.0264,0.0261,0.0263,0.0269,0.0285,0.0271,0.0286,0.0297,0.03,0.0302,0.0302,0.0304,0.0273,0.0273,0.0273,0,0.0081,0.0101,0.0099,0.0125,0.0139,0.0149,0.018,0.0196,0.0232,0.0227,0.0239,0.0265,0.0268,0.0273,0.0267,0.0269,0.0278,0.0289,0.0297,0.03,0.0302,0.0302,0.0304,0.0273,0.0273,0.0273,0.0273,0,0.0119,0.0128,0.0147,0.0176,0.019,0.0222,0.0235,0.0243,0.026,0.0265,0.0275,0.0286,0.03,0.0288,0.0283,0.0294,0.0293,0.0292,0.0302,0.0304,0.0303,0.0306,0.0272,0.0273,0.0273,0.0273,0,0,0.014,0.017,0.0173,0.0181,0.0223,0.0238,0.0258,0.0269,0.0275,0.0294,0.0311,0.0307,0.0313,0.0317,0.0313,0.0315,0.0322,0.0315,0.0315,0.0318,0.0346,0.0337,0.0339,0.0327,0.0328,0.0329,0.0333,0,0.0174,0.0219,0.0233,0.0269,0.0292,0.029,0.0305,0.0301,0.0312,0.0328,0.0316,0.0339,0.0327,0.0339,0.0343,0.0335,0.0334,0.0322,0.0342,0.0342,0.0337,0.0344,0.0302,0.0303,0.0336,0.0336,0.0336,0,0.0216,0.0233,0.0277,0.0293,0.0304,0.0328,0.0333,0.0347,0.0342,0.0348,0.0364,0.0375,0.0387,0.0383,0.0391,0.0388,0.0373,0.0358,0.0358,0.0361,0.034,0.0309,0.0307,0.0342,0.0341,0.0341,0.0341,0,0.0228,0.0268,0.0301,0.0309,0.0331,0.0332,0.0344,0.034,0.0344,0.0369,0.0384,0.0412,0.0431,0.0435,0.0419,0.0412,0.0422,0.0407,0.0379,0.0377,0.0353,0.0348,0.0407,0.0407,0.0407,0.0407,0.0407,0,0.0269,0.0289,0.0301,0.031,0.0327,0.0336,0.0353,0.0355,0.0373,0.0384,0.0408,0.0432,0.0446,0.0454,0.0441,0.043,0.0445,0.0391,0.0385,0.0346,0.0341,0.0388,0.0386,0.0407,0.0407,0.0407,0.0407,0,0.0283,0.03,0.032,0.033,0.0333,0.0337,0.0354,0.0356,0.0379,0.0404,0.0417,0.0446,0.0458,0.0462,0.0457,0.0448,0.0438,0.042,0.0371,0.0359,0.0377,0.0374,0.0402,0.0401,0.0401,0.0401,0.0401,0,0.0308,0.0313,0.0319,0.0321,0.0331,0.0334,0.0332,0.0352,0.0365,0.0404,0.042,0.044,0.0443,0.0446,0.0441,0.043,0.0422,0.0374,0.0351,0.0389,0.038,0.0377,0.0375,0.0305,0.0304,0.0303,0.0302,0,0.0319,0.0313,0.0316,0.032,0.0322,0.0323,0.0334,0.0348,0.0371,0.0393,0.0418,0.0419,0.0423,0.0397,0.0388,0.0372,0.0382,0.0359,0.0421,0.0316,0.0299,0.0289,0.029,0.0296,0.0297,0.0297,0.0298,0.0298,0.0317,0.031,0.0305,0.0313,0.0316,0.0322,0.032,0.0335,0.035,0.0381,0.0395,0.0396,0.036,0.0344,0.0327,0.0331,0.0341,0.031,0.0311,0.0314,0.0305,0.029,0.0282,0.0283,0.0283,0.0284,0.0284,0,0.0302,0.0297,0.0299,0.0301,0.0304,0.0315,0.0324,0.031,0.0319,0.0363,0.037,0.0325,0.0293,0.0286,0.0279,0.0262,0.0261,0.0249,0.0234,0.024,0.0245,0.0233,0.0191,0.0191,0.0191,0.0191,0,0,0.0294,0.028,0.0278,0.0284,0.0294,0.0284,0.0288,0.0269,0.0291,0.0302,0.0325,0.0327,0.0304,0.0267,0.0227,0.0219,0.0243,0.0218,0.0288,0.0278,0.0284,0.0266,0.0252,0,0,0,0,0]}],[{"header":{"parameterUnit":"m.s-1","parameterCategory":2,"la1":30.2991,"la2":30.254,"lo1":-89.0895,"lo2":-89.0444,"dy":0.0017,"dx":0.0017,"nx":28,"ny":28,"refTime":"2025-06-06T21:00:00:Z","depth":"4","parameterNumber":2,"parameterNumberName":"U-component_of_CURRENTS"},"data":[0,0,0,0,0,0,0,0,0,0,0,0,0,0,0,0,0,0,0,0,0,0,0,0,0,0,0,0,0,0,0,0,0,0,0,0,0,0,0,0,0,0,0,0,0,0,0,0,0,0,0,0,0,0,0,0,0,0,-0.0521,-0.052,0,-0.0546,-0.0548,-0.0549,-0.0636,-0.0637,-0.0637,-0.0638,-0.0675,-0.0675,-0.0676,0,0,0,0,0,0,0,0,0,0,0,0,0,-0.0516,-0.0517,-0.0521,-0.052,-0.0519,-0.0546,-0.0548,-0.0549,-0.0636,-0.0637,-0.0638,-0.0638,-0.0675,-0.0675,-0.0676,0,0,0,0,0,0,0,0,0,0,0,0,0,-0.0539,-0.0517,-0.0521,-0.0557,-0.0559,-0.0546,-0.0548,-0.055,-0.0635,-0.0637,-0.0638,-0.0639,-0.0675,-0.0675,-0.0676,-0.0653,0,0,-0.0677,-0.0677,0,0,0,0,0,0,0,0,-0.0538,-0.0541,-0.0552,-0.0554,-0.0557,-0.0578,-0.0559,-0.0581,-0.0635,-0.0619,-0.0638,-0.064,-0.0635,-0.0639,-0.0658,-0.0655,-0.0656,-0.0677,-0.0677,-0.0677,-0.0677,0,0,0,0,0,0,0,-0.0536,-0.054,-0.0544,-0.0551,-0.0554,-0.0559,-0.0566,-0.0564,-0.063,-0.0621,-0.0624,-0.0607,-0.0638,-0.0658,-0.0659,-0.0657,-0.0677,-0.0677,-0.0677,-0.0677,-0.065,-0.0649,0,0,0,0,0,0,-0.0508,-0.0538,-0.0543,-0.0543,-0.0536,-0.0558,-0.0565,-0.058,-0.063,-0.0635,-0.0606,-0.0611,-0.0656,-0.0659,-0.0661,-0.0704,-0.0677,-0.0677,-0.0678,-0.0651,-0.0649,-0.0648,0,0,0,0,0,0,-0.0509,-0.051,-0.0541,-0.053,-0.0532,-0.0555,-0.0572,-0.058,-0.0623,-0.0616,-0.0624,-0.0641,-0.0658,-0.066,-0.0709,-0.0703,-0.0677,-0.0678,-0.0652,-0.065,-0.0649,-0.0746,0,0,0,0,0,0,-0.0509,-0.0511,-0.0537,-0.0529,-0.0532,-0.0555,-0.057,-0.0579,-0.0602,-0.061,-0.0648,-0.0652,-0.0659,-0.0709,-0.071,-0.0703,-0.0678,-0.0653,-0.0651,-0.0649,-0.0744,-0.0748,-0.0752,0,0,0,0,0,-0.051,-0.0511,-0.0539,-0.054,-0.056,-0.0554,-0.0559,-0.0586,-0.0603,-0.063,-0.0673,-0.0652,-0.0695,-0.0712,-0.0712,-0.0704,-0.0654,-0.0651,-0.0649,-0.0742,-0.0748,-0.0752,0,0,0,0,0,0,-0.0523,-0.0519,-0.055,-0.0555,-0.057,-0.0565,-0.0588,-0.0595,-0.0649,-0.068,-0.0677,-0.0684,-0.071,-0.0689,-0.0705,-0.0681,-0.0654,-0.0652,-0.0724,-0.0729,-0.0733,-0.0788,-0.0678,0,0,0,0,0,-0.0536,-0.055,-0.0547,-0.0564,-0.0575,-0.0592,-0.06,-0.0622,-0.0645,-0.0673,-0.0699,-0.0706,-0.0693,-0.0705,-0.0703,-0.0714,-0.0694,-0.069,-0.0695,-0.0698,-0.0737,-0.0673,-0.0676,-0.0641,-0.0641,-0.0642,0,0,-0.0534,-0.0544,-0.0547,-0.0569,-0.0595,-0.0622,-0.0606,-0.0634,-0.0671,-0.0665,-0.075,-0.0734,-0.0699,-0.0719,-0.0722,-0.071,-0.0701,-0.0696,-0.07,-0.0738,-0.0671,-0.0675,-0.0679,-0.064,-0.064,-0.0641,0,0,-0.0549,-0.057,-0.0599,-0.0622,-0.0659,-0.0659,-0.0668,-0.0696,-0.0736,-0.079,-0.078,-0.0796,-0.0786,-0.0783,-0.0763,-0.0782,-0.0723,-0.0727,-0.0803,-0.0739,-0.0743,-0.0746,-0.0754,-0.0757,-0.0729,-0.0729,-0.0729,0,-0.0568,-0.0602,-0.0605,-0.0656,-0.0672,-0.0677,-0.0718,-0.0748,-0.0796,-0.0828,-0.0833,-0.0853,-0.0824,-0.0837,-0.0831,-0.0799,-0.0759,-0.0798,-0.0749,-0.0751,-0.0752,-0.076,-0.0762,-0.0734,-0.0733,-0.0733,-0.0732,0,-0.0602,-0.0654,-0.0672,-0.0742,-0.0761,-0.079,-0.0817,-0.0874,-0.0902,-0.0915,-0.0969,-0.097,-0.0972,-0.0934,-0.089,-0.0869,-0.0839,-0.0764,-0.0752,-0.0763,-0.0769,-0.077,-0.074,-0.0738,-0.0737,-0.0736,0,0,-0.0599,-0.0679,-0.0704,-0.0744,-0.0811,-0.0815,-0.0902,-0.0945,-0.0997,-0.1053,-0.1114,-0.1099,-0.1094,-0.1072,-0.1022,-0.0978,-0.0947,-0.087,-0.0864,-0.0908,-0.084,-0.0736,-0.0726,-0.0834,-0.0833,-0.0833,-0.0853,0,-0.0645,-0.0739,-0.0764,-0.0839,-0.0878,-0.0921,-0.0989,-0.1041,-0.108,-0.1144,-0.1162,-0.117,-0.1139,-0.1123,-0.1092,-0.0992,-0.0945,-0.0952,-0.0799,-0.0798,-0.0724,-0.0721,-0.0832,-0.0853,-0.0853,-0.0853,-0.0853,0,-0.068,-0.0739,-0.0825,-0.0896,-0.0919,-0.096,-0.1055,-0.1084,-0.117,-0.122,-0.1277,-0.1271,-0.1291,-0.1202,-0.1142,-0.1135,-0.0991,-0.0913,-0.0909,-0.0784,-0.0691,-0.0826,-0.0854,-0.0854,-0.0854,-0.0854,-0.0854,0,-0.066,-0.0768,-0.0827,-0.0857,-0.0948,-0.1003,-0.1015,-0.1111,-0.1141,-0.1218,-0.1256,-0.1332,-0.13,-0.1238,-0.1137,-0.1095,-0.1041,-0.0953,-0.0751,-0.0745,-0.0797,-0.0793,-0.0835,-0.0835,-0.0835,-0.0835,-0.0835,0,-0.066,-0.0712,-0.0824,-0.0855,-0.0924,-0.0968,-0.1007,-0.1085,-0.116,-0.1145,-0.1238,-0.1236,-0.1268,-0.1257,-0.1181,-0.1026,-0.1079,-0.079,-0.073,-0.0839,-0.0839,-0.08,-0.0795,-0.0836,-0.0836,-0.0835,-0.0835,0,-0.0605,-0.0691,-0.0761,-0.0882,-0.0912,-0.0931,-0.0961,-0.099,-0.1061,-0.1056,-0.1067,-0.1143,-0.1064,-0.1153,-0.1032,-0.1008,-0.092,-0.0807,-0.102,-0.0968,-0.0664,-0.0664,-0.0613,-0.0609,-0.0606,-0.0603,-0.0601,0,-0.0576,-0.0624,-0.0755,-0.079,-0.0836,-0.0849,-0.0875,-0.0944,-0.0926,-0.0936,-0.0915,-0.0888,-0.0899,-0.0787,-0.0823,-0.0815,-0.0715,-0.0775,-0.0643,-0.0688,-0.0635,-0.0641,-0.0645,-0.0596,-0.0595,-0.0594,-0.0593,0,-0.0525,-0.0595,-0.0635,-0.0715,-0.0761,-0.0763,-0.0754,-0.0751,-0.0751,-0.0845,-0.0718,-0.0701,-0.0596,-0.06,-0.063,-0.0582,-0.0851,-0.0739,-0.0742,-0.0617,-0.0666,-0.0618,-0.0627,-0.0582,-0.0583,-0.0584,-0.0585,0,-0.0481,-0.0498,-0.0567,-0.0612,-0.0667,-0.0656,-0.0659,-0.0587,-0.0582,-0.0603,-0.0511,-0.0488,-0.0499,-0.046,-0.0478,-0.0493,-0.0397,-0.0422,-0.0439,-0.0452,-0.0392,-0.0431,-0.0233,0,0,0,0,0,-0.0433,-0.0425,-0.0457,-0.0499,-0.0538,-0.0575,-0.0583,-0.0573,-0.057,-0.0451,-0.0485,-0.0368,-0.032,-0.0311,-0.0269,-0.0377,-0.0437,-0.0335,-0.0483,-0.052,-0.0533,-0.0478,0,0,0,0,0,0,-0.04,-0.0409,-0.0415,-0.0383,-0.0392,-0.0415,-0.0436,-0.0446,-0.0347,-0.0355,-0.0303,-0.0345,-0.0287,-0.0311,-0.0253,-0.0263,-0.035,-0.0339,-0.0338,-0.0512,-0.0524,-0.0534,-0.0483,0,0,0,0,0]},{"header":{"parameterUnit":"m.s-1","parameterCategory":2,"la1":30.2991,"la2":30.254,"lo1":-89.0895,"lo2":-89.0444,"dy":0.0017,"dx":0.0017,"nx":28,"ny":28,"refTime":"2025-06-06T21:00:00:Z","depth":"4","parameterNumber":3,"parameterNumberName":"V-component_of_CURRENTS"},"data":[0,0,0,0,0,0,0,0,0,0,0,0,0,0,0,0,0,0,0,0,0,0,0,0,0,0,0,0,0,0,0,0,0,0,0,0,0,0,0,0,0,0,0,0,0,0,0,0,0,0,0,0,0,0,0,0,0,0,0.0216,0.0216,0,0.0207,0.0207,0.0207,0.0258,0.026,0.0261,0.0263,0.0322,0.0323,0.0323,0,0,0,0,0,0,0,0,0,0,0,0,0,0.0183,0.0184,0.0216,0.0216,0.0216,0.0207,0.0207,0.0207,0.0258,0.026,0.0262,0.0263,0.0322,0.0323,0.0323,0,0,0,0,0,0,0,0,0,0,0,0,0,0.0189,0.0184,0.0216,0.024,0.0242,0.0207,0.0207,0.0207,0.0258,0.026,0.0262,0.0264,0.0322,0.0323,0.0323,0.0284,0,0,0.0324,0.0325,0,0,0,0,0,0,0,0,0.0189,0.019,0.0237,0.0238,0.024,0.0235,0.0217,0.0236,0.0257,0.0253,0.0263,0.0265,0.0298,0.03,0.0294,0.0287,0.0289,0.0325,0.0325,0.0325,0.0325,0,0,0,0,0,0,0,0.0188,0.019,0.0214,0.0236,0.0238,0.0218,0.0222,0.022,0.0265,0.0253,0.0257,0.0254,0.03,0.0293,0.0296,0.029,0.0325,0.0325,0.0325,0.0325,0.0318,0.0318,0,0,0,0,0,0,0.0191,0.0191,0.0214,0.0213,0.0218,0.0217,0.0222,0.0235,0.0264,0.027,0.0252,0.0256,0.0292,0.0295,0.0298,0.0316,0.0325,0.0325,0.0326,0.0319,0.0318,0.0318,0,0,0,0,0,0,0.019,0.0193,0.0214,0.02,0.0201,0.0216,0.023,0.0234,0.0254,0.0262,0.027,0.0271,0.0293,0.0298,0.0322,0.0317,0.0326,0.0326,0.0319,0.0319,0.0318,0.0311,0,0,0,0,0,0,0.019,0.0194,0.0218,0.0201,0.0202,0.021,0.0228,0.0232,0.0246,0.0253,0.028,0.0286,0.0295,0.0321,0.0322,0.0317,0.0326,0.032,0.0319,0.0318,0.0312,0.031,0.0309,0,0,0,0,0,0.0189,0.0191,0.022,0.0223,0.0232,0.021,0.0209,0.0226,0.0246,0.0252,0.0277,0.0287,0.0316,0.0321,0.0322,0.0318,0.032,0.0319,0.0318,0.0313,0.0311,0.0309,0,0,0,0,0,0,0.0181,0.0196,0.0227,0.0237,0.0239,0.0219,0.0225,0.0233,0.0253,0.0274,0.0285,0.0292,0.0306,0.0311,0.0316,0.0312,0.0317,0.0317,0.0312,0.0311,0.0309,0.0317,0.0327,0,0,0,0,0,0.0194,0.0209,0.0217,0.0226,0.0234,0.0237,0.0236,0.0249,0.0254,0.0266,0.0285,0.0299,0.0294,0.0307,0.0308,0.031,0.0325,0.0305,0.0304,0.0303,0.0309,0.033,0.0331,0.0315,0.0315,0.0315,0,0,0.018,0.0202,0.0204,0.0227,0.0235,0.0226,0.0243,0.0247,0.024,0.0268,0.0284,0.0297,0.0292,0.0295,0.0301,0.0307,0.0313,0.0302,0.0301,0.0307,0.0329,0.0331,0.0333,0.0314,0.0314,0.0314,0,0,0.0155,0.0199,0.0206,0.0207,0.0232,0.0232,0.0238,0.0244,0.026,0.0272,0.028,0.0309,0.0304,0.0308,0.0303,0.0295,0.0302,0.0279,0.0283,0.0303,0.0306,0.0308,0.0324,0.0328,0.0282,0.0282,0.0282,0,0.0148,0.0163,0.0198,0.0202,0.0191,0.0234,0.0216,0.0228,0.0241,0.0246,0.0286,0.0302,0.0314,0.03,0.0296,0.0295,0.0297,0.0291,0.0303,0.0305,0.0308,0.0324,0.0328,0.0282,0.0282,0.0282,0.0282,0,0.0128,0.0136,0.0133,0.016,0.0156,0.0147,0.0163,0.0185,0.0222,0.0228,0.0258,0.03,0.031,0.031,0.03,0.0302,0.0295,0.0297,0.0311,0.0309,0.0326,0.0331,0.0281,0.0281,0.0282,0.0282,0,0,0.0108,0.0117,0.012,0.0113,0.0132,0.0118,0.0124,0.0126,0.0123,0.0195,0.0201,0.0233,0.0279,0.0277,0.0289,0.0314,0.0335,0.0305,0.0307,0.0328,0.0367,0.028,0.0277,0.0328,0.0329,0.0329,0.0371,0,0.0085,0.0071,0.0081,0.0045,0.0029,0.0053,0.004,0.0054,0.0085,0.0109,0.019,0.0205,0.0254,0.027,0.0308,0.0332,0.0345,0.0323,0.036,0.0362,0.029,0.0279,0.0332,0.0375,0.0376,0.0376,0.0377,0,0.0066,0.0058,0.0024,-0.0017,-0.002,-0.0028,-0.0034,-0.0036,0.0003,0.0029,0.0097,0.0142,0.0218,0.0252,0.0346,0.0323,0.0334,0.0363,0.0365,0.0292,0.0283,0.0378,0.0385,0.0384,0.0384,0.0383,0.0383,0,0.0041,0.0008,-0.0019,-0.0033,-0.0058,-0.006,-0.0055,-0.0045,-0.0053,-0.0001,0.0013,0.0108,0.0173,0.0241,0.0328,0.0323,0.0415,0.0418,0.0352,0.0347,0.0419,0.0417,0.0443,0.0443,0.0443,0.0443,0.0443,0,0.0007,-0.0023,-0.0026,-0.0041,-0.0084,-0.0078,-0.0096,-0.0095,-0.0073,-0.0086,-0.0007,0.0006,0.0167,0.0239,0.0311,0.0361,0.0412,0.0349,0.0348,0.0413,0.0409,0.0422,0.0419,0.0444,0.0444,0.0444,0.0444,0,-0.0022,-0.0024,-0.0071,-0.0088,-0.0094,-0.0112,-0.012,-0.0141,-0.0109,-0.0112,-0.0093,-0.0047,0.0027,0.0165,0.0268,0.0321,0.0385,0.0366,0.0431,0.0434,0.0305,0.0302,0.0306,0.0304,0.0301,0.0299,0.0298,0,-0.0034,-0.0055,-0.0093,-0.0125,-0.0128,-0.014,-0.0162,-0.0151,-0.0169,-0.0159,-0.0171,-0.0123,-0.0079,0.0057,0.0156,0.029,0.0281,0.0334,0.0315,0.0291,0.029,0.029,0.029,0.0294,0.0293,0.0293,0.0292,0,-0.0076,-0.0083,-0.0118,-0.0158,-0.0189,-0.0239,-0.0248,-0.0251,-0.0236,-0.023,-0.0221,-0.0168,-0.012,-0.0007,0.0091,0.0177,0.0333,0.0309,0.0314,0.0297,0.0276,0.0278,0.028,0.0284,0.0285,0.0286,0.0286,0,-0.0106,-0.0135,-0.016,-0.0205,-0.0265,-0.0304,-0.0299,-0.0298,-0.0299,-0.0258,-0.0274,-0.0201,-0.0154,-0.0077,0.0013,0.01,0.0098,0.0152,0.0166,0.0176,0.0115,0.0068,0.0005,0,0,0,0,0,-0.0143,-0.0164,-0.0205,-0.0243,-0.0305,-0.0324,-0.0364,-0.0346,-0.0313,-0.0309,-0.0273,-0.0231,-0.0141,-0.0124,-0.0056,-0.0071,0.0096,0.0006,0.0163,0.0238,0.0248,0.0189,0,0,0,0,0,0,-0.0162,-0.0203,-0.0205,-0.0271,-0.0291,-0.0345,-0.0366,-0.0348,-0.0327,-0.0288,-0.0241,-0.0216,-0.0134,-0.0157,-0.0048,-0.0036,0.007,0.0046,0.0047,0.0233,0.0241,0.0249,0.0192,0,0,0,0,0]}]]